カタログに戻る

STARLINK-4285

運用中通信VLEO
NORAD 52991·PAYLOAD·🇺🇸 United States

打ち上げ Jul 7, 2022 から Cape Canaveral Space Force Station

Loading…

次のパス (今後24時間)

TLE

最新Source: CelesTrak SupGP

元期: Sep 14, 2026, 20:53 UTC

1 52991C 22076F   26257.87062500 -.00029875  00000+0 -88291-3 0  2573
2 52991  53.1570 320.3831 0001386  80.7424 271.8956 15.34396687    13

AllMySatでSTARLINK-4285をリアルタイム追跡

Download on the App Store